Back to catalog

CZ-6A DEB

AlivePO
NORAD 61836·DEBRIS·🇨🇳 China

Launched Aug 6, 2024 from Taiyuan Satellite Launch Center

Loading…

Next Passes (next 24 hours)

TLE

FreshSource: Space-Track

Epoch: Sep 14, 2026, 00:42 UTC

1 61836U 24140ADC 26257.02985939  .00004063  00000-0  75324-3 0  9999
2 61836  89.0568 265.0147 0084549 306.9525  52.3967 14.62816219105915

Track CZ-6A DEB in real time with AllMySat

Download on the App Store